Home > Time Zones > World Clock > Weather > Japan > Kyoto > Past weeks

Flag for Japan Weather past 2 weeks in Kyoto, Japan

Now
68 °F

Partly cloudy.


Feels Like: 68 °F
Forecast: 53 / 75 °F
Wind: 7 mph from West

Location: Osaka International Airport

Current Time: Apr 28, 2015 at 9:47:03 PM

Latest Report: Apr 28, 2015 at 8:00 PM


Visibility: N/A

Pressure: 30.01 "Hg

Humidity: 64%

Dew point: 55 °F

Location of KyotoLocation

Historic Weather in Kyoto — Graph

°F

Kyoto temperature yesterday

Maximum temperature yesterday: 79 °F (at 1:00 PM)
Minimum temperature yesterday: 57 °F (at 5:00 AM)
Average temperature yesterday: 71 °F

Past Weeks' High & Low Weather Summary

 TemperatureHumidityPressure
High79 °F (Apr 27, 1:00 PM)100% (Apr 20, 1:00 PM)30.18 "Hg (Apr 20, 1:00 PM)
Low43 °F (Apr 18, 5:00 AM)12% (Apr 18, 2:00 PM)29.50 "Hg (Apr 20, 3:00 PM)
Average64 °F57%29.94 "Hg
* Reported Apr 13 8:00 PM — Apr 28 8:00 PM, Kyoto, Weather by CustomWeather, © 2015

Note: Actual official high and low records may vary slightly from our data, if they occured in-between our weather recording intervals... More about our weather records

Advertising

Kyoto weather history for previous 24 hours

 ConditionsComfort  
Time TempWeatherWind HumidityBarometerVisibility
8:00 PM
Tue, Apr 28
68 °FPartly cloudy.7 mph64%30.01 "HgN/A
7:00 PM70 °FPartly cloudy.8 mph53%30.01 "HgN/A
6:00 PM70 °FBroken clouds.10 mph53%30.01 "HgN/A
5:00 PM72 °FOvercast.12 mph47%29.98 "HgN/A
4:00 PM72 °FOvercast.8 mph50%29.98 "HgN/A
3:00 PM73 °FOvercast.12 mph47%30.01 "HgN/A
2:00 PM73 °FOvercast.9 mph50%30.01 "HgN/A
1:00 PM75 °FOvercast.7 mph50%30.04 "HgN/A
12:00 PM75 °FPartly sunny.6 mph50%30.04 "HgN/A
11:00 AM73 °FPartly sunny.8 mph57%30.07 "HgN/A
10:00 AM72 °FPartly sunny.7 mph61%30.09 "HgN/A
9:00 AM70 °FBroken clouds.2 mph69%30.07 "Hg4 mi
8:00 AM68 °FBroken clouds.3 mph73%30.07 "Hg4 mi
7:00 AM64 °FFog.6 mph83%30.07 "Hg3 mi
6:00 AM61 °FPartly sunny.1 mph88%30.07 "Hg4 mi
5:00 AM59 °FClear.1 mph94%30.07 "Hg5 mi
Weather by CustomWeather, © 2015

See weather overviewHow to use our weather pages